Leadville, CO

4:34 PM MDT on August 29, 2016 (GMT -0600)
Lake County

Weather History for KLXV - November, 2014

Change the Weather History Date:

Thursday, November 13, 2014

  Actual Average Record
Temperature  
Mean Temperature 8 °F -  
Max Temperature 27 °F 38 °F 55 °F (1990)
Min Temperature -12 °F 13 °F -12 °F (2014)
Degree Days  
Heating Degree Days 57 40  
Month to date heating degree days 476 481  
Since 1 July heating degree days 2414 2670  
Cooling Degree Days 0 0  
Month to date cooling degree days 0 0  
Year to date cooling degree days 0 0  
Moisture  
Dew Point 17 °F    
Average Humidity 80    
Maximum Humidity 92    
Minimum Humidity 67    
Precipitation  
Precipitation 0.27 in 0.02 in 0.51 in (2002)
Month to date precipitation 0.76 0.36  
Year to date precipitation 15.42 11.30  
Sea Level Pressure  
Sea Level Pressure 29.97 in    
Wind  
Wind Speed 8 mph (North)    
Max Wind Speed 23 mph    
Max Gust Speed 30 mph    
Visibility 3 miles    
Events Fog , Snow    
T = Trace of Precipitation, MM = Missing Value Source: NWS Daily Summary

Daily Weather History Graph

Daily Weather History Graph

Search for Another Location

Airport or City:

Trip Planner

Search our weather history database for the weather conditions in past years. The results will help you decide how hot, cold, wet, or windy it might be!

Date:

Astronomy

Nov. 13, 2014 Rise Set
Actual Time 6:46 AM MST 4:52 PM MST
Civil Twilight 6:17 AM MST 5:20 PM MST
Nautical Twilight 5:45 AM MST 5:52 PM MST
Astronomical Twilight 5:14 AM MST 6:24 PM MST
Moon 11:10 PM MST (11/13) 12:08 PM MST (11/13)
Length of Visible Light 11h 02m
Length of Day
10h 05m
Waning Gibbous, 58% of the Moon is Illuminated
Nov 13
Waning Gibbous
Nov 14
Last Quarter
Nov 22
New
Nov 29
First Quarter
Dec 6
Full

Hourly Weather History & Observations

Time (MST) Temp. Windchill Dew Point Humidity Pressure Visibility Wind Dir Wind Speed Gust Speed Precip Events Conditions
12:20 AM -9.9 °F - -16.1 °F 74% 29.99 in 1.2 mi Calm Calm - N/A   Haze
12:53 AM -11.0 °F - -17.0 °F 75% 30.23 in 1.5 mi Calm Calm - N/A   Haze
1:05 AM -5.1 °F -19.1 °F -11.9 °F 72% 29.98 in 3.0 mi NNE 6.9 mph - N/A   Haze
1:20 AM -0.9 °F -14.1 °F -7.1 °F 75% 29.99 in 7.0 mi NNE 6.9 mph - N/A   Partly Cloudy
1:53 AM 6.1 °F -2.8 °F 3.0 °F 87% 30.13 in 10.0 mi North 4.6 mph - N/A   Clear
2:53 AM 9.0 °F -3.2 °F 6.1 °F 88% 30.10 in 10.0 mi NNE 8.1 mph - N/A   Clear
3:53 AM 12.2 °F -0.2 °F 6.8 °F 79% 29.99 in 10.0 mi NNE 9.2 mph 19.6 mph N/A   Clear
4:53 AM 12.9 °F -1.6 °F 6.1 °F 74% 30.05 in 10.0 mi NNE 12.7 mph 20.7 mph N/A   Clear
5:53 AM 12.9 °F 0.7 °F 6.1 °F 74% 30.12 in 10.0 mi NNE 9.2 mph - N/A   Partly Cloudy
6:53 AM 15.1 °F 1.8 °F 7.0 °F 70% 30.11 in 10.0 mi NNE 11.5 mph 19.6 mph N/A   Mostly Cloudy
7:53 AM 18.0 °F 7.7 °F 8.1 °F 65% 30.13 in 10.0 mi NNE 8.1 mph - N/A   Overcast
8:53 AM 19.0 °F 9.0 °F 12.0 °F 74% 30.13 in 4.0 mi NNE 8.1 mph - 0.00 in Snow Light Snow
9:04 AM 19.0 °F 8.2 °F 12.0 °F 74% 30.01 in 2.5 mi NNE 9.2 mph - 0.00 in Snow Light Snow
9:39 AM 19.9 °F 8.6 °F 15.1 °F 81% 30.01 in 1.8 mi NNE 10.4 mph - 0.00 in Snow Light Snow
9:53 AM 19.9 °F 12.1 °F 15.1 °F 81% 30.14 in 0.8 mi NNE 5.8 mph - 0.01 in Snow Light Snow
10:17 AM 21.0 °F 12.4 °F 17.1 °F 85% 30.01 in 0.8 mi NE 6.9 mph - 0.00 in Snow Light Snow
10:28 AM 21.0 °F 10.6 °F 17.1 °F 85% 30.00 in 0.8 mi NNE 9.2 mph - 0.01 in Snow Light Snow
10:53 AM 21.0 °F 11.4 °F 17.1 °F 85% 30.13 in 0.8 mi NNE 8.1 mph - 0.02 in Snow Light Snow
11:12 AM 21.9 °F 11.7 °F 18.0 °F 85% 30.00 in 0.5 mi NNE 9.2 mph - 0.01 in Fog , Snow Light Snow
11:36 AM 23.0 °F 13.1 °F 18.0 °F 81% 29.99 in 1.0 mi NE 9.2 mph - 0.02 in Snow Light Snow
11:53 AM 23.0 °F 15.8 °F 18.0 °F 81% 30.12 in 1.2 mi NNE 5.8 mph - 0.02 in Snow Light Snow
12:20 PM 25.0 °F 15.5 °F 19.0 °F 78% 29.97 in 2.0 mi NNW 9.2 mph 18.4 mph 0.00 in Snow Light Snow
12:36 PM 25.0 °F 13.6 °F 19.0 °F 78% 29.97 in 1.5 mi NW 12.7 mph 17.3 mph 0.00 in Snow Light Snow
12:53 PM 24.1 °F 18.2 °F 19.9 °F 84% 30.09 in 1.2 mi Variable 4.6 mph - 0.00 in Snow Light Snow
1:42 PM 24.1 °F 16.0 °F 19.9 °F 84% 29.94 in 0.8 mi North 6.9 mph - 0.01 in Snow Light Snow
1:53 PM 25.0 °F 16.3 °F 19.9 °F 81% 29.94 in 1.2 mi North 8.1 mph - 0.01 in Snow Light Snow
2:29 PM 25.0 °F 17.1 °F 21.0 °F 85% 29.93 in 2.0 mi NNE 6.9 mph - 0.01 in Snow Light Snow
2:43 PM 25.0 °F 17.1 °F 21.9 °F 88% 29.93 in 1.0 mi North 6.9 mph - 0.01 in Snow Light Snow
2:51 PM 24.8 °F 15.3 °F 21.2 °F 86% 29.93 in 0.5 mi North 9.2 mph - 0.02 in Fog , Snow Snow
2:53 PM 25.0 °F 16.3 °F 21.9 °F 88% 29.92 in 0.5 mi North 8.1 mph - 0.02 in Fog , Snow Snow
3:07 PM 25.0 °F 20.7 °F 23.0 °F 92% 29.93 in 0.2 mi North 3.5 mph - 0.01 in Fog , Snow Snow
3:51 PM 24.8 °F 16.1 °F 23.0 °F 93% 29.94 in 0.5 mi North 8.1 mph - 0.06 in Fog , Snow Snow
3:53 PM 24.1 °F 17.0 °F 23.0 °F 96% 29.91 in 0.5 mi North 5.8 mph - 0.06 in Fog , Snow Snow
4:00 PM 24.1 °F 16.0 °F 23.0 °F 96% 29.93 in 0.2 mi NNE 6.9 mph - 0.01 in Fog , Snow Snow
4:15 PM 25.0 °F 18.1 °F 23.0 °F 92% 29.93 in 0.5 mi North 5.8 mph - 0.02 in Fog , Snow Snow
4:26 PM 25.0 °F 19.3 °F 23.0 °F 92% 29.93 in 0.8 mi North 4.6 mph - 0.02 in Snow Light Snow
4:53 PM 25.0 °F 19.3 °F 23.0 °F 92% 29.90 in 0.8 mi North 4.6 mph - 0.03 in Snow Light Snow
5:04 PM 25.0 °F 18.1 °F 23.0 °F 92% 29.93 in 1.2 mi North 5.8 mph - 0.01 in Snow Light Snow
5:12 PM 25.0 °F 19.3 °F 23.0 °F 92% 29.93 in 1.5 mi NNE 4.6 mph - 0.01 in Snow Light Snow
5:47 PM 24.8 °F 16.9 °F 23.0 °F 93% 29.93 in 3.0 mi NNE 6.9 mph - 0.02 in Snow Light Snow
5:53 PM 25.0 °F 15.5 °F 23.0 °F 92% 29.89 in 4.0 mi NNE 9.2 mph - 0.02 in Snow Light Snow
6:06 PM 25.0 °F 16.3 °F 21.9 °F 88% 29.94 in 2.5 mi NNW 8.1 mph - 0.00 in Snow Light Snow
6:37 PM 25.0 °F 14.8 °F 23.0 °F 92% 29.94 in 1.8 mi NNW 10.4 mph 17.3 mph 0.02 in Snow Light Snow
6:53 PM 25.0 °F 16.3 °F 23.0 °F 92% 29.90 in 1.2 mi NNW 8.1 mph - 0.03 in Snow Light Snow
7:03 PM 25.0 °F 16.3 °F 23.0 °F 92% 29.95 in 2.0 mi NW 8.1 mph - 0.00 in Snow Light Snow
7:08 PM 25.0 °F 14.2 °F 21.9 °F 88% 29.94 in 4.0 mi NW 11.5 mph 18.4 mph 0.00 in Snow Light Snow
7:33 PM 26.1 °F 16.2 °F 23.0 °F 88% 29.94 in 2.0 mi NNW 10.4 mph - 0.01 in Snow Light Snow
7:41 PM 25.0 °F 15.5 °F 23.0 °F 92% 29.94 in 1.2 mi NW 9.2 mph 16.1 mph 0.01 in Snow Light Snow
7:53 PM 25.0 °F 16.3 °F 23.0 °F 92% 29.87 in 2.0 mi NNW 8.1 mph - 0.01 in Snow Light Snow
8:01 PM 25.0 °F 15.5 °F 24.1 °F 96% 29.94 in 1.5 mi NNW 9.2 mph - 0.01 in Snow Light Snow
8:10 PM 25.0 °F 13.1 °F 23.0 °F 92% 29.94 in 3.0 mi NW 13.8 mph - 0.01 in Snow Light Snow
8:29 PM 26.1 °F 15.6 °F 21.9 °F 84% 29.95 in 3.0 mi WNW 11.5 mph 24.2 mph 0.01 in Snow Light Snow
8:36 PM 26.1 °F 16.2 °F 23.0 °F 88% 29.95 in 2.5 mi NW 10.4 mph 19.6 mph 0.01 in Snow Light Snow
8:44 PM 26.1 °F 15.6 °F 21.9 °F 84% 29.96 in 4.0 mi NW 11.5 mph 23.0 mph 0.01 in Snow Light Snow
8:53 PM 26.1 °F 16.2 °F 21.9 °F 84% 29.86 in 4.0 mi NW 10.4 mph - 0.01 in Snow Light Snow
9:11 PM 25.0 °F 14.8 °F 23.0 °F 92% 29.94 in 4.0 mi NNW 10.4 mph - 0.01 in Snow Light Snow
9:49 PM 26.6 °F 14.7 °F 21.2 °F 80% 29.96 in 2.5 mi NW 15.0 mph 28.8 mph 0.01 in Snow Light Snow
9:53 PM 26.1 °F 15.0 °F 21.0 °F 81% 29.87 in 3.0 mi WNW 12.7 mph 20.7 mph 0.01 in Snow Light Snow
10:09 PM 26.1 °F 15.6 °F 21.0 °F 81% 29.95 in 6.0 mi WNW 11.5 mph 16.1 mph 0.00 in Snow Light Snow
10:35 PM 25.0 °F 14.8 °F 21.0 °F 85% 29.95 in 2.5 mi NW 10.4 mph 21.9 mph 0.01 in Snow Light Snow
10:51 PM 24.8 °F 16.1 °F 23.0 °F 93% 29.96 in 1.2 mi NNW 8.1 mph 19.6 mph 0.01 in Snow Light Snow
10:53 PM 25.0 °F 17.1 °F 23.0 °F 92% 29.87 in 1.0 mi NW 6.9 mph - 0.01 in Snow Light Snow
11:13 PM 25.0 °F 18.1 °F 21.9 °F 88% 29.95 in 3.0 mi Variable 5.8 mph - 0.01 in Snow Light Snow
11:22 PM 24.1 °F 15.2 °F 21.9 °F 91% 29.95 in 2.0 mi NW 8.1 mph - 0.01 in Snow Light Snow
11:50 PM 24.8 °F 15.3 °F 21.2 °F 86% 29.94 in 1.8 mi NW 9.2 mph 20.7 mph 0.01 in Snow Light Snow
11:53 PM 24.1 °F 15.2 °F 21.0 °F 88% 29.84 in 2.5 mi WNW 8.1 mph - 0.01 in Snow Light Snow